Regional Weather Roundup
Issued by NWS

Home | Current Version | Previous Version | Graphics & Text | Print | Product List | Glossary Off
Versions: 1 2 3 4 5 6 7 8 9 10 11 12 13 14 15 16 17 18 19 20 21 22 23 24 25 26 27 28 29 30 31 32 33 34 35 36 37 38 39 40 41 42 43 44 45 46 47 48 49 50

506
ASUS43 KMKX 221721
RWRWI

WISCONSIN REGIONAL WEATHER ROUNDUP
NATIONAL WEATHER SERVICE MILWAUKEE/SULLIVAN WI
1200 PM CDT SUN OCT 22 2017

NOTE: "FAIR" INDICATES FEW OR NO CLOUDS BELOW 12,000 FEET WITH NO
SIGNIFICANT WEATHER AND/OR OBSTRUCTIONS TO VISIBILITY.

WIZ001-002-006>008-014>016-023>028-221800-
NORTHWEST WISCONSIN

CITY           SKY/WX    TMP DP  RH WIND       PRES   REMARKS
SUPERIOR ARPT  CLOUDY    52  42  67 SW13      29.91S
ASHLAND        CLOUDY    51  40  65 SW15G21   29.92R
HAYWARD        CLOUDY    50  39  66 SW10      29.95R
SIREN          PTSUNNY   52  39  62 W10       29.96F
CUMBERLAND     CLOUDY    50  37  62 W8        29.97F
RICE LAKE      CLOUDY    51  40  67 W7        29.99S
CHETEK         CLOUDY    50  41  69 W5        29.97F
LADYSMITH      CLOUDY    50  43  76 SW7       29.99R
EAU CLAIRE     CLOUDY    51  42  71 W6        29.99R
MENOMONIE      CLOUDY    52  42  68 SW7       30.00S
NEW RICHMOND   PTSUNNY   55  38  54 W12       29.99S
OSCEOLA        CLOUDY    54  40  60 W8        30.01F
$$

WIZ003>005-009-010-017-018-221800-
NORTH CENTRAL WISCONSIN

CITY           SKY/WX    TMP DP  RH WIND       PRES   REMARKS
MANITOWISH WTR CLOUDY    47  47 100 W7        29.93R
ARBOR VITAE    CLOUDY    49  47  90 W6        29.94R
WOODRUFF       CLOUDY    49  47  90 W6        29.94R
RHINELANDER    LGT RAIN  48  47  96 W8        29.96R
EAGLE RIVER    NOT AVBL
LAND O LAKES   DRIZZLE   48  45  87 W5        29.95R
PHILLIPS       CLOUDY    47  44  87 SW5       29.95R
TOMAHAWK       CLOUDY    47  44  90 CALM      29.97S
MEDFORD        CLOUDY    48  43  83 W9        29.97R
MERRILL        DRIZZLE   49  47  93 CALM      29.96S
$$

WIZ029-030-035-036-043>047-221800-
CENTRAL WISCONSIN

CITY           SKY/WX    TMP DP  RH WIND       PRES   REMARKS
WAUSAU         LGT RAIN  49  46  90 W7        29.96R
MOSINEE        LGT RAIN  48  48 100 W7        29.98R
MARSHFIELD     LGT RAIN  50  45  83 W8        29.98R
STEVENS POINT  RAIN      49  48  97 W5        29.98F
WAUPACA        DRIZZLE   54  50  87 W5        29.98S
WAUTOMA        LGT RAIN N/A N/A N/A W7        30.00R
WISC RAPIDS    LGT RAIN  50  48  93 NW3       30.00R
CAMP DOUGLAS   LGT RAIN  52  48  87 W6        30.01R
$$

WIZ011>013-019>022-031-037>040-048>050-221800-
NORTHEAST WISCONSIN

CITY           SKY/WX    TMP DP  RH WIND       PRES   REMARKS
ANTIGO         DRIZZLE   48  46  91 W12G17    29.97R
SHAWANO        RAIN      53  48  82 W5        29.98R
OCONTO         CLOUDY    50  48  92 NW6       29.95R
STURGEON BAY   LGT RAIN  55  54  94 NW18      29.92R
GREEN BAY      CLOUDY    51  51 100 NW7       29.96S
MANITOWOC      LGT RAIN  55  54  94 W13G20    29.94
APPLETON       CLOUDY    50  48  93 MISG      29.96R FOG
CLINTONVILLE   RAIN      52  48  87 W3        29.97R
OSHKOSH        CLOUDY    51  48  89 NW7       29.96F
$$

WIZ032>034-041-042-053>061-221800-
SOUTHWEST WISCONSIN

CITY           SKY/WX    TMP DP  RH WIND       PRES   REMARKS
LA CROSSE      CLOUDY    55  45  68 W6        30.02R
SPARTA         CLOUDY    51  47  86 W5        30.02R
VIROQUA        CLOUDY    50  48  92 W3        30.02S
BOSCOBEL       LGT RAIN  54  49  83 CALM      30.03S
PRAIRIE DU CHI CLOUDY    53  45  74 NW3       30.03R
PLATTEVILLE    CLOUDY    51  50  96 N9        30.02S
$$

WIZ056-057-062-063-064-067-068-221800-
SOUTH CENTRAL WISCONSIN

CITY           SKY/WX    TMP DP  RH WIND       PRES   REMARKS
REEDSBURG      DRIZZLE   50  50  98 NW6       30.01S
BARABOO/DELLS  DRIZZLE   50  47  90 NW6       30.02R
LONE ROCK      CLOUDY    52  48  86 NW7       30.02R
MINERAL POINT  LGT RAIN  52  50  93 NW12      30.01S
MADISON        RAIN      52  49  89 NW12      30.00R FOG
MIDDLETON      CLOUDY    53  49  89 NW14      30.01R
WATERTOWN      CLOUDY    49  49 100 NW15      29.97R
MONROE         DRIZZLE   52  50  93 NW9G18    29.99R
JANESVILLE     LGT RAIN  55  55 100 NW13G18   29.95R FOG
$$

WIZ051-052-058>065-066-070>072-221800-
SOUTHEAST WISCONSIN

CITY           SKY/WX    TMP DP  RH WIND       PRES   REMARKS
MILWAUKEE      LGT RAIN  66  63  90 S12       29.92S
WAUKESHA       LGT RAIN  61  59  94 SW12      29.94R FOG
MILWAUKEE/TIMM LGT RAIN  63  59  88 S9        29.93R
RACINE         CLOUDY    64  62  93 S7        29.94S
BURLINGTON     CLOUDY    63  63 100 S7        29.92S
KENOSHA        LGT RAIN  66  61  84 S10       29.93S
FOND DU LAC    CLOUDY    51  46  83 NW12      29.98R
SHEBOYGAN      LGT RAIN  55  54  96 NW15G23   29.95R FOG
WEST BEND      LGT RAIN  54  52  94 NW10G18   29.95R
JUNEAU         CLOUDY    49  47  94 NW10G17   29.99R
$$

LSZ147-162-221800-
LAKE SUPERIOR

STATION/POSITION TIME  TEMP    WIND        PRES    WAVE
                       AIR SEA DIR/SP/G            HT/PER
                 (UTC) (F)     (DEG/KT/KT) (MB)    (FT/S)
W MID LAKE BUOY  1650   52 52              1010.6R   5/ 6
DEVILS ISLAND    1700   52     240/ 22/ 28 1011.9R
SAXON HARBOR     1640   53     220/  8/ 14 1012.5S
$$

LMZ867-665-643>646-221800-
LAKE MICHIGAN

STATION/POSITION TIME  TEMP    WIND        PRES    WAVE
                       AIR SEA DIR/SP/G            HT/PER
                 (UTC) (F)     (DEG/KT/KT) (MB)    (FT/S)
S GREEN BAY BUOY 1700   54 58  290/ 19/ 25 1014.0
N MID LAKE BUOY  1650   62 58  190/ 19/ 25 1012.4F   6/ 7
NORTHPORT PIER   1640   59     160/  8/ 14 1012.2S
KEWAUNEE LAKESHO 1700   56     300/  8/ 16 1012.5
SHEBOYGAN LAKESH 1700   57     290/ 13/ 15 1013.8R
PORT WASHINGTON  1630   55     200/  7/ 10 1014.2R
ATWATER BUOY     1609   55 52  160/ 16/ 17 1013.1S
MILWAUKEE LAKESH 1700   56     150/ 10/ 10   N/A
S MID LAKE BUOY  1650   63 61  170/ 17/ 19 1014.3F   4/ 5
KENOSHA   LAKESH 1700   57     170/ 12/ 15 1013.2
$$

TC  - TEMPERATURE IN CELSIUS
VSB - VISIBILITY IN STATUTE MILES
WCI - WIND CHILL INDEX
HX  - HEAT INDEX





USA.gov is the U.S. government's official web portal to all federal, state and local government web resources and services.